This demonstration page uses our WeatherBlox Daily Observations layout. Learn more.

Left ArrowRight Arrow

39.08367, -84.50855

Hourly Observations for July 23, 2020

Temp ( °F °C ) Dew Point ( °F °C ) Humidity (%) Winds ( mph kmh ) Pressure ( in mb ) Visibility ( mi km ) Precip ( " mm )
12:53 am 00:53 Clear 74 23.3 71 21.7 91 91 N N/A 30.04 1017 10 16 N/A
1:53 am 01:53 Clear 74 23.3 70 21.1 88 88 S 5 7 30.04 1017 10 16 N/A
2:53 am 02:53 Clear 72 22.2 70 21.1 94 94 N N/A 30.04 1017 10 16 N/A
3:53 am 03:53 Clear 72 22.2 70 21.1 94 94 N N/A 30.04 1017 10 16 N/A
4:53 am 04:53 Mostly Cloudy 73 22.8 70 21.1 90 90 N N/A 30.04 1017 10 16 N/A
5:53 am 05:53 Mostly Clear 72 22.2 70 21.1 94 94 N N/A 30.06 1018 10 16 N/A
6:53 am 06:53 Partly Cloudy 73 22.8 70 21.1 90 90 N N/A 30.07 1018 10 16 N/A
7:53 am 07:53 Mostly Cloudy 74 23.3 71 21.7 91 91 N N/A 30.08 1019 10 16 0.00 0.00
8:53 am 08:53 Mostly Cloudy with Rain 73 22.8 71 21.7 94 94 S 7 11 30.10 1019 7 11 0.04 1.02
9:53 am 09:53 Cloudy with Light Rain 74 23.3 72 22.2 94 94 S 8 13 30.10 1019 6 10 0.06 1.52
10:33 am 10:33 Cloudy with Light Rain 75 23.9 72 22.2 90 90 S 7 11 30.09 1019 9 14 0.01 0.25
10:53 am 10:53 Cloudy with Light Rain 75 23.9 72 22.2 90 90 S 7 11 30.10 1019 10 16 0.01 0.25
11:09 am 11:09 Cloudy 76 24.4 73 22.8 91 91 SSW 8 13 30.09 1019 10 16 0.00 0.00
11:20 am 11:20 Cloudy 77 25 73 22.8 88 88 SSW 7 11 30.10 1019 10 16 0.00 0.00
11:36 am 11:36 Cloudy 77 25 73 22.8 88 88 SW 6 9 30.10 1019 10 16 0.00 0.00
11:53 am 11:53 Cloudy 76 24.4 72 22.2 88 88 SSW 6 9 30.11 1020 10 16 0.00 0.00
12:44 pm 12:44 Mostly Cloudy 78 25.6 73 22.8 85 85 SSW 8 13 30.09 1019 10 16 N/A
12:53 pm 12:53 Partly Cloudy 80 26.7 74 23.3 82 82 WSW 6 9 30.09 1019 10 16 N/A
1:53 pm 13:53 Mostly Cloudy 82 27.8 72 22.2 72 72 W 9 15 30.09 1019 10 16 N/A
2:01 pm 14:01 Mostly Cloudy 83 28.3 72 22.2 70 70 WSW 6 9 30.07 1018 10 16 N/A
2:53 pm 14:53 Mostly Cloudy 82 27.8 73 22.8 74 74 SSW 8 13 30.06 1018 10 16 N/A
3:53 pm 15:53 Mostly Cloudy 83 28.3 73 22.8 72 72 SSW 9 15 30.04 1017 10 16 N/A
4:53 pm 16:53 Mostly Cloudy 84 28.9 73 22.8 70 70 SSW 6 9 30.04 1017 10 16 N/A
5:53 pm 17:53 Partly Cloudy 83 28.3 73 22.8 72 72 S 7 11 30.03 1017 10 16 N/A
6:53 pm 18:53 Partly Cloudy 82 27.8 73 22.8 74 74 SSW 8 13 30.03 1017 10 16 N/A
7:23 pm 19:23 Partly Cloudy with Nearby Thunderstorms 80 26.7 74 23.3 82 82 S 5 7 30.02 1016 10 16 N/A
7:41 pm 19:41 Mostly Cloudy with Thunderstorms 80 26.7 74 23.3 82 82 NNE 5 7 30.03 1017 6 10 0.00 0.00
7:53 pm 19:53 Windy with Storms Likely 76 24.4 71 21.7 85 85 NW 21 33 30.06 1018 3 5 0.06 1.52
8:01 pm 20:01 Cloudy with Strong Thunderstorms 73 22.8 72 22.2 96 96 NNW 17 28 30.06 1018 2 3 0.60 15.24
8:41 pm 20:41 Cloudy with Nearby Thunderstorms 73 22.8 72 22.2 96 96 S 9 15 30.07 1018 6 10 1.33 33.78
8:53 pm 20:53 Cloudy with Nearby Thunderstorms 73 22.8 72 22.2 96 96 SSE 3 6 30.08 1019 6 10 1.33 33.78
9:00 pm 21:00 Cloudy with Mist and Fog 74 23.3 72 22.2 94 94 E 5 7 30.07 1018 6 10 N/A
9:09 pm 21:09 Cloudy with Nearby Thunderstorms 74 23.3 72 22.2 94 94 E 3 6 30.07 1018 6 10 N/A
9:37 pm 21:37 Cloudy with Mist and Fog 74 23.3 71 21.7 91 91 SW 5 7 30.07 1018 6 10 N/A
9:53 pm 21:53 Cloudy 73 22.8 71 21.7 94 94 N N/A 30.08 1019 10 16 N/A
10:53 pm 22:53 Cloudy 73 22.8 72 22.2 96 96 N N/A 30.08 1019 9 14 N/A
11:53 pm 23:53 Mostly Cloudy 73 22.8 71 21.7 94 94 N N/A 30.08 1019 7 11 N/A

Powered by AerisWeather